Vorticity
nan nan nan nan nan nan nan nan nan nan nan nan nan nan nan nan nan nan nan nan nan nan nan nan nan nan nan nan nan nan nan nan nan nan nan nan nan nan nan nan nan nan nan nan nan nan nan nan nan
nan 9 10 8 7 4 6 8 7 5 6 7 -1 6 6 8 8 8 16 12 6 4 5 7 8 6 6 6 4 5 5 7 5 4 4 6 6 6 7 7 4 3 5 5 5 5 5 4 nan
nan 11 7 8 4 4 7 9 9 11 7 5 5 6 7 -0 3 11 16 8 5 4 6 9 8 6 6 5 4 5 6 6 5 4 5 6 6 6 6 6 4 4 6 4 4 5 5 4 nan
nan 8 8 11 4 3 4 1 8 14 4 10 6 2 11 5 3 15 12 5 4 5 8 9 8 6 4 5 5 5 6 5 6 6 6 6 5 6 6 6 5 5 5 4 4 5 6 4 nan
nan 7 9 5 7 7 7 5 8 6 7 6 6 8 4 3 9 11 11 7 6 7 8 8 8 6 5 5 6 6 6 5 6 5 4 5 5 5 5 6 5 5 5 4 4 5 6 4 nan
nan 9 7 6 9 4 11 11 7 7 7 6 7 7 4 5 9 3 11 13 8 7 7 8 6 4 5 5 6 7 7 6 4 4 5 4 5 5 5 5 5 5 4 4 4 4 5 6 nan
nan 9 7 7 7 9 7 5 5 9 8 9 5 5 4 6 1 7 12 11 6 5 5 7 6 5 4 3 6 7 7 7 10 8 6 3 3 4 5 4 4 5 4 4 4 4 4 5 nan
nan 6 7 10 7 8 5 7 6 4 12 6 9 10 7 10 -1 6 7 13 7 4 4 6 7 5 4 6 6 5 5 7 12 11 6 5 3 3 3 4 6 5 4 4 4 4 4 4 nan
nan 9 7 5 6 9 8 6 6 8 8 6 11 14 15 9 6 3 9 11 5 6 6 5 5 6 5 6 5 5 4 2 3 9 5 2 3 5 6 6 5 5 5 4 4 4 4 4 nan
nan 9 9 5 6 3 5 10 8 8 5 5 9 10 8 9 17 8 3 4 8 8 6 6 6 6 5 5 5 4 3 3 3 4 3 4 7 7 7 7 6 4 4 4 4 4 5 4 nan
nan 7 3 5 7 6 7 7 9 5 6 13 9 5 4 6 9 7 8 8 9 5 6 8 8 7 5 5 4 5 6 7 8 7 5 6 7 7 6 6 6 7 6 5 6 6 7 6 nan
nan 15 3 0 4 10 10 6 6 7 10 13 13 6 6 7 8 8 5 8 12 5 6 8 6 6 5 6 7 6 6 7 7 8 8 6 7 7 7 6 7 6 7 7 6 7 7 8 nan
nan 4 12 7 1 3 12 10 8 6 6 7 11 10 8 4 5 7 8 9 6 8 9 8 5 6 8 5 6 7 7 7 8 9 8 7 8 7 7 7 8 7 7 8 8 7 8 9 nan
nan 7 9 14 3 3 10 9 9 7 5 5 6 10 10 9 5 4 6 7 7 10 8 7 7 6 8 6 6 5 6 7 7 9 10 7 7 7 7 9 8 8 7 8 9 7 8 8 nan
nan 12 10 11 9 8 5 7 6 9 7 6 3 5 8 10 8 6 6 7 6 8 10 10 7 6 6 7 6 6 7 7 8 10 9 7 7 8 7 7 8 7 8 7 6 8 9 7 nan
nan 9 7 10 10 5 9 9 2 5 5 5 6 4 6 7 9 8 8 8 6 7 9 8 8 7 7 8 6 6 8 9 9 10 9 8 7 7 7 7 7 7 8 8 7 7 7 8 nan
nan 14 6 0 8 8 9 5 8 12 8 3 4 6 6 8 5 10 9 8 8 7 7 6 9 7 6 7 7 7 8 8 8 8 9 9 8 7 7 7 8 8 7 7 7 8 8 7 nan
nan 8 10 3 9 8 5 1 15 15 8 6 5 6 7 7 8 9 8 9 8 7 8 7 8 7 7 7 7 9 8 7 8 8 9 9 8 8 7 7 8 7 7 7 8 8 7 8 nan
nan 13 6 10 8 4 12 5 4 10 8 8 8 9 8 8 9 10 8 7 8 9 9 8 6 7 6 7 9 9 8 8 9 9 9 9 9 9 7 7 8 8 8 8 7 8 7 8 nan
nan 8 8 11 9 4 10 9 7 5 11 11 8 8 9 9 9 10 8 8 10 9 6 9 7 5 5 6 8 9 9 9 10 9 10 9 10 10 10 9 8 10 10 9 9 8 8 9 nan
nan 4 5 11 5 6 8 12 14 8 7 8 9 10 9 10 13 12 8 7 7 8 11 9 8 6 6 7 5 6 7 10 9 9 11 11 9 9 12 11 10 8 8 9 8 9 9 9 nan
nan 19 10 8 6 9 5 14 17 10 4 7 8 9 9 7 10 16 10 6 8 9 9 11 12 9 6 8 7 6 6 8 8 8 10 9 9 9 8 9 10 9 9 9 9 9 9 9 nan
nan 27 8 1 2 10 4 6 19 19 7 9 9 9 9 7 7 10 9 8 9 10 6 8 11 11 10 8 7 9 8 7 10 10 9 7 7 7 8 7 8 9 9 9 9 10 10 9 nan
nan 2 7 8 4 10 12 6 8 17 15 10 15 15 12 8 7 8 10 8 8 7 7 7 9 9 10 9 9 9 8 7 9 8 7 7 7 7 7 7 8 8 8 9 9 9 10 9 nan
nan -2 4 7 11 10 7 9 9 6 18 18 11 11 14 15 15 14 12 6 9 8 8 7 7 6 9 10 10 9 10 10 6 6 8 9 8 8 10 8 8 8 9 8 8 8 9 10 nan
nan 9 9 11 8 9 10 7 9 13 11 11 12 9 8 12 12 15 13 11 11 11 9 7 9 10 8 8 10 11 11 9 10 11 8 8 10 11 10 8 8 8 8 7 9 9 9 10 nan
nan 9 12 5 8 13 8 6 10 11 8 9 8 8 8 7 8 8 10 12 13 13 9 9 7 7 10 12 11 9 8 10 12 10 6 11 10 10 9 10 8 8 7 8 9 9 9 11 nan
nan 7 6 11 13 9 12 9 8 8 7 5 7 7 6 6 6 7 9 10 11 13 13 10 9 10 10 9 8 10 12 10 8 8 13 9 7 9 9 8 8 8 8 9 9 9 10 9 nan
nan 11 11 13 7 9 10 9 16 13 9 7 6 9 8 6 5 5 6 7 9 13 15 11 11 10 9 9 10 10 9 8 9 11 11 10 11 10 9 8 9 8 8 9 11 11 10 8 nan
nan nan nan nan nan nan nan nan nan nan nan nan nan nan nan nan nan nan nan nan nan nan nan nan nan nan nan nan nan nan nan nan nan nan nan nan nan nan nan nan nan nan nan nan nan nan nan nan nan
CAPE
445 375 391 10 17 0 0 0 0 40 0 0 0 0 351 285 249 35 209 988 923 1064 1358 1775 2075 1824 1540 1258 912 1133 623 483 791 277 35 0 2 17 16 7 165 163 24 13 10 6 2 0 0
790 788 51 1 0 0 0 0 0 2 2 0 0 0 82 297 171 120 1002 1009 921 1090 1201 1585 1985 1846 1665 1502 1083 895 230 249 725 553 64 1 3 9 14 8 7 24 17 8 12 7 0 0 0
453 648 1 12 0 0 0 0 0 5 0 0 0 0 146 442 449 265 943 848 993 999 1289 1798 1873 1814 1617 1468 991 377 141 74 876 846 433 0 1 5 8 12 10 28 12 7 7 1 0 0 0
243 167 40 0 0 0 0 0 0 1 0 0 16 61 451 500 639 592 924 1135 817 798 1357 1790 1789 1623 1691 1551 1039 253 97 15 687 924 445 1 0 2 4 5 10 19 16 8 3 0 0 0 0
175 62 37 0 0 0 0 0 0 0 0 0 56 243 94 640 717 491 695 911 796 1208 1456 1643 1818 1809 1738 1443 949 510 107 7 626 952 342 28 0 1 4 6 7 8 8 4 1 0 0 0 0
230 106 1 0 0 0 0 0 0 0 0 0 89 598 709 720 646 657 380 1047 1325 1408 1544 1631 1679 1693 1389 1252 856 499 163 170 577 1164 580 99 0 0 1 2 4 4 3 1 0 0 0 24 36
166 61 0 0 0 0 8 1 0 0 0 78 30 583 661 550 710 734 686 1011 1127 1378 1426 1437 1363 1260 1156 923 699 279 428 764 886 1032 784 355 162 21 0 7 0 0 0 0 0 0 0 1 30
165 90 8 0 0 0 31 6 0 13 174 116 79 562 392 238 422 826 791 576 863 1044 1133 959 1151 1069 627 368 269 99 491 526 918 835 509 203 102 105 56 32 59 26 11 9 7 7 0 0 0
268 90 29 0 1 4 24 0 0 3 60 42 70 160 460 509 586 708 671 572 682 854 839 898 890 722 349 194 33 12 153 79 87 151 57 41 19 10 0 0 26 50 29 14 5 0 0 0 0
254 93 12 0 10 43 5 0 0 62 21 343 652 894 920 814 690 731 505 560 727 599 974 862 776 669 321 226 11 0 0 0 0 0 0 0 0 0 0 0 11 40 33 16 9 0 0 0 0
268 54 6 25 59 131 0 2 11 42 19 5 651 759 892 826 881 802 528 711 754 745 996 867 729 771 355 174 33 0 0 0 0 0 0 0 0 0 0 0 0 0 0 0 0 0 0 0 0
184 16 6 75 73 125 6 0 12 17 0 0 343 829 796 928 945 873 644 407 795 792 969 721 584 776 459 152 123 46 1 1 0 0 0 0 0 0 0 0 0 0 0 0 0 0 0 0 0
58 42 39 66 195 67 40 10 14 0 0 0 2 726 663 734 740 656 671 418 527 900 865 750 633 859 686 349 263 167 80 43 15 1 0 0 0 0 0 0 0 0 0 0 0 0 0 0 0
3 6 72 114 114 58 52 1 12 0 0 0 0 15 392 587 621 589 465 492 511 607 726 824 772 745 804 693 534 337 94 25 27 106 6 0 0 0 0 0 0 0 0 0 0 0 0 0 0
3 49 76 134 57 16 0 0 0 0 0 0 0 0 0 31 545 454 410 399 714 610 559 825 846 685 596 559 710 470 249 84 55 57 63 21 0 0 0 0 0 0 0 0 0 0 0 0 0
0 56 119 24 117 8 0 0 1 0 0 0 0 0 0 0 2 446 494 520 475 522 706 616 693 515 456 500 529 415 387 215 97 57 58 57 21 0 0 0 0 0 0 0 0 0 0 0 0
17 20 32 1 23 1 25 0 0 0 0 0 0 0 0 0 0 0 285 598 715 500 629 716 751 573 573 589 495 511 425 92 21 37 52 61 37 8 2 0 0 0 0 0 0 0 0 0 0
6 14 38 5 0 9 0 4 0 0 0 0 0 0 0 0 0 0 0 61 615 477 525 570 654 658 541 454 607 523 357 138 38 25 48 87 64 35 12 17 13 0 0 12 0 0 1 1 8
0 0 13 0 0 0 3 0 0 0 0 0 0 0 0 0 0 0 0 0 231 433 516 576 601 460 394 359 355 335 276 150 95 102 107 106 122 85 31 38 30 49 50 7 1 0 3 6 11
19 23 23 2 2 0 0 0 0 0 0 0 0 0 0 0 0 0 0 0 0 392 527 544 669 449 477 443 398 414 361 350 297 266 318 248 215 151 103 120 146 142 138 115 82 71 161 95 20
6 7 15 3 0 2 0 2 0 0 0 0 0 0 0 0 0 0 0 0 0 0 402 691 733 655 577 577 442 394 319 406 482 441 447 368 328 309 279 266 256 258 263 263 269 174 161 116 18
0 1 50 24 18 6 5 0 0 0 0 0 0 0 0 0 0 0 0 0 0 0 0 360 627 679 752 568 554 500 494 443 322 267 290 0 0 0 0 0 9 51 41 18 5 3 0 0 1
0 1 34 46 4 3 8 0 0 1 0 0 0 0 0 0 0 0 0 0 0 0 0 0 13 531 668 590 617 452 285 244 0 0 0 0 0 0 0 0 0 0 0 0 0 0 0 0 0
2 15 14 13 12 5 12 0 0 0 0 0 0 0 0 0 0 0 0 0 0 0 0 0 0 0 3 105 243 336 268 0 0 0 0 0 0 0 0 0 0 0 0 0 0 0 0 0 0
0 0 0 0 1 0 0 0 0 0 0 0 0 0 0 0 0 0 0 0 0 0 0 0 0 0 0 0 0 16 63 0 0 0 0 0 0 0 0 0 0 0 0 0 0 0 0 0 0
0 0 0 0 0 0 0 0 0 0 0 0 0 0 0 0 0 0 0 0 0 0 0 0 0 0 0 0 0 0 0 0 0 0 0 0 0 0 0 0 0 0 0 0 0 0 0 0 0
14 0 0 0 0 0 0 0 0 0 0 0 0 0 0 0 0 0 0 0 0 0 0 0 0 0 0 0 0 0 0 0 0 0 0 0 0 0 0 0 0 0 0 0 0 0 0 0 0
0 0 0 0 0 0 0 0 0 0 0 0 0 0 0 0 0 0 0 0 0 0 0 0 0 0 0 0 0 0 0 0 0 0 0 0 0 0 0 0 0 0 0 0 0 0 0 0 0
0 0 0 0 0 0 0 0 0 0 0 0 0 0 0 0 0 0 0 0 0 0 0 0 0 0 0 0 0 0 0 0 0 0 0 0 0 0 0 0 0 0 0 0 0 0 0 0 0
0 0 0 0 0 0 0 0 0 0 0 0 0 0 0 0 0 0 0 0 0 0 0 0 0 0 0 0 0 0 0 0 0 0 0 0 0 0 0 0 0 0 0 0 0 0 0 0 0